TimeCDT,TemperatureF,Dew PointF,Humidity,Sea Level PressureIn,VisibilityMPH,Wind Direction,Wind SpeedMPH,Gust SpeedMPH,PrecipitationIn,Events,Conditions,WindDirDegrees,DateUTC
12:53 AM,37.9,30.0,73,29.92,10.0,NNE,13.8,24.2,N/A,,Mostly Cloudy,30,2013-03-17 05:53:00
1:53 AM,37.0,28.9,73,29.92,10.0,NE,12.7,24.2,N/A,,Partly Cloudy,40,2013-03-17 06:53:00
2:53 AM,36.0,28.0,73,29.91,10.0,NNE,15.0,-,N/A,,Clear,30,2013-03-17 07:53:00
3:53 AM,34.0,28.0,79,29.91,10.0,NNE,10.4,19.6,N/A,,Partly Cloudy,20,2013-03-17 08:53:00
4:08 AM,33.8,28.4,81,29.91,10.0,NNE,13.8,-,N/A,,Mostly Cloudy,30,2013-03-17 09:08:00
4:53 AM,33.8,28.4,81,29.92,10.0,North,9.2,-,N/A,,Overcast,10,2013-03-17 09:53:00
5:53 AM,34.0,28.9,82,29.90,10.0,NE,10.4,-,N/A,,Overcast,50,2013-03-17 10:53:00
6:02 AM,33.8,28.4,81,29.90,10.0,NE,8.1,-,N/A,,Overcast,40,2013-03-17 11:02:00
6:53 AM,34.0,28.0,79,29.90,10.0,NE,11.5,-,N/A,,Overcast,40,2013-03-17 11:53:00
7:25 AM,33.8,28.4,81,29.88,10.0,NNE,9.2,-,N/A,,Overcast,30,2013-03-17 12:25:00
7:53 AM,34.0,28.0,79,29.89,10.0,NE,8.1,-,N/A,,Overcast,50,2013-03-17 12:53:00
8:46 AM,35.6,28.4,75,29.87,10.0,NNE,9.2,-,N/A,,Overcast,20,2013-03-17 13:46:00
8:53 AM,35.1,28.9,78,29.89,10.0,North,11.5,-,N/A,,Overcast,360,2013-03-17 13:53:00
9:53 AM,36.0,28.9,76,29.91,10.0,North,9.2,-,N/A,,Overcast,350,2013-03-17 14:53:00
10:53 AM,36.0,28.9,76,29.91,10.0,North,5.8,-,N/A,,Overcast,360,2013-03-17 15:53:00
11:53 AM,39.0,30.0,70,29.89,10.0,Variable,4.6,-,N/A,,Overcast,0,2013-03-17 16:53:00
12:53 PM,41.0,32.0,70,29.86,10.0,North,4.6,-,N/A,,Overcast,10,2013-03-17 17:53:00
1:53 PM,43.0,33.1,68,29.81,10.0,NE,3.5,-,N/A,,Overcast,50,2013-03-17 18:53:00
2:53 PM,45.0,34.0,65,29.76,10.0,Calm,Calm,-,N/A,,Overcast,0,2013-03-17 19:53:00
3:14 PM,48.2,33.8,58,29.73,10.0,SE,6.9,-,N/A,,Scattered Clouds,130,2013-03-17 20:14:00
3:53 PM,50.0,35.1,57,29.70,10.0,SSE,4.6,-,N/A,,Clear,150,2013-03-17 20:53:00
4:53 PM,54.0,37.0,53,29.66,10.0,SSE,9.2,-,N/A,,Clear,150,2013-03-17 21:53:00
5:53 PM,55.0,36.0,49,29.63,9.0,South,8.1,-,N/A,,Clear,180,2013-03-17 22:53:00
6:53 PM,53.1,37.0,55,29.62,10.0,SE,11.5,-,N/A,,Clear,140,2013-03-17 23:53:00
7:53 PM,50.0,37.9,63,29.62,10.0,SE,11.5,-,N/A,,Clear,130,2013-03-18 00:53:00
8:53 PM,46.9,37.9,71,29.66,10.0,East,8.1,-,N/A,,Clear,90,2013-03-18 01:53:00
9:53 PM,46.0,37.9,73,29.65,10.0,SE,9.2,-,N/A,,Clear,140,2013-03-18 02:53:00
10:53 PM,43.0,37.9,82,29.63,9.0,SSE,11.5,-,N/A,,Clear,150,2013-03-18 03:53:00
11:53 PM,41.0,37.0,86,29.64,8.0,Calm,Calm,-,N/A,,Partly Cloudy,0,2013-03-18 04:53:00